Date,TemperatureHighF,TemperatureAvgF,TemperatureLowF,DewpointHighF,DewpointAvgF,DewpointLowF,HumidityHigh,HumidityAvg,HumidityLow,PressureMaxIn,PressureMinIn,WindSpeedMaxMPH,WindSpeedAvgMPH,GustSpeedMaxMPH,PrecipitationSumIn
2013-1-1,48.5,46.8,44.1,47.9,40.5,29.2,98,81,48,30.13,29.94,5,0,11,0.24
2013-1-2,47.9,43.2,38.8,47.6,42.0,38.0,99,96,85,30.21,29.94,3,0,5,0.23
2013-1-3,44.7,38.6,29.3,39.0,36.7,28.8,98,93,77,30.28,30.17,2,0,3,0.00
2013-1-4,48.6,36.7,25.4,31.5,27.1,23.1,99,72,39,30.34,30.22,4,0,7,0.00
2013-1-5,51.6,38.2,25.9,31.7,27.2,23.4,93,67,36,30.41,30.28,3,0,5,0.00
2013-1-6,51.4,42.6,34.2,40.0,36.3,31.3,97,79,60,30.28,30.08,2,0,5,0.01
2013-1-7,52.3,38.6,28.5,36.1,32.4,27.7,99,81,49,30.47,30.20,3,0,7,0.00
2013-1-8,55.4,41.6,29.7,41.5,36.2,28.2,97,82,53,30.50,30.39,0,0,2,0.00
2013-1-9,68.6,49.9,34.9,53.0,44.5,34.3,99,84,57,30.47,30.37,4,0,6,0.00
2013-1-10,63.6,53.4,47.2,50.5,44.2,35.4,98,73,49,30.55,30.42,2,0,4,0.00
2013-1-11,51.8,47.4,42.4,51.1,43.9,34.4,99,89,63,30.46,30.17,3,0,3,0.20
2013-1-12,69.3,58.0,49.9,63.3,56.7,49.6,100,96,80,30.19,30.11,2,0,3,0.00
2013-1-13,74.7,63.4,55.6,64.3,59.4,55.3,100,88,65,30.15,30.06,5,0,10,0.01
2013-1-14,68.9,63.6,53.9,63.9,60.8,52.7,99,91,78,30.17,30.08,3,0,9,0.14
2013-1-15,53.5,45.3,43.5,52.3,44.7,42.9,99,98,96,30.26,30.08,5,0,10,0.04
2013-1-16,49.9,46.1,42.7,49.8,45.8,42.4,100,99,98,30.10,29.99,2,0,5,0.20
2013-1-17,50.6,46.0,33.5,50.5,45.6,33.1,100,99,96,30.15,29.92,6,1,11,1.14
2013-1-18,45.3,35.3,28.5,37.2,31.5,25.9,99,88,47,30.56,30.16,3,0,7,0.51
2013-1-19,54.2,38.6,24.9,33.1,29.4,24.1,98,73,36,30.53,30.18,2,0,8,0.14
2013-1-20,62.9,48.2,36.2,36.5,33.9,30.3,80,60,33,30.17,30.00,6,1,13,0.00
2013-1-21,59.4,43.8,29.2,33.9,28.7,19.0,97,61,29,30.10,29.87,4,0,10,0.00
2013-1-22,38.2,31.3,20.5,24.3,9.8,0.1,66,42,22,30.31,29.97,5,0,14,0.00
2013-1-23,39.6,27.9,15.9,18.1,12.8,5.4,88,56,31,30.41,30.09,5,0,10,0.00
2013-1-24,36.2,30.5,20.6,25.9,16.2,7.0,76,56,31,30.55,29.98,8,1,15,0.00
2013-1-25,28.2,24.0,17.4,26.9,17.1,6.5,95,76,44,30.56,30.14,2,0,6,0.00
2013-1-26,35.8,30.5,25.8,33.7,29.3,25.3,98,95,89,30.43,30.12,1,0,4,0.02
2013-1-27,40.9,30.7,22.1,31.1,26.6,21.1,98,86,64,30.64,30.43,4,0,6,0.04
2013-1-28,51.4,42.5,29.2,48.2,37.6,27.0,95,84,60,30.54,30.24,5,0,9,0.02
2013-1-29,74.0,59.6,48.6,58.1,53.1,47.5,97,81,56,30.25,30.07,5,1,8,0.00
2013-1-30,72.3,67.4,60.6,65.2,62.8,57.8,95,85,76,30.07,29.38,20,3,31,0.05
2013-1-31,65.3,47.7,35.9,62.9,31.8,20.7,93,56,34,30.02,29.42,11,2,21,0.21
2013-2-1,41.1,34.3,22.9,29.4,15.7,3.4,70,49,24,30.42,29.89,14,1,15,0.00
2013-2-2,44.9,32.1,17.3,32.8,15.6,11.0,87,54,28,30.43,30.06,6,1,15,0.00
2013-2-3,49.1,40.4,31.5,35.8,30.8,24.4,95,71,41,30.05,29.87,4,0,9,0.00
2013-2-4,49.0,37.7,24.5,28.8,24.2,20.4,91,61,36,30.17,30.02,4,0,7,0.00
2013-2-5,59.1,46.6,39.1,36.5,33.2,28.8,83,61,39,30.03,29.90,6,0,9,0.00
2013-2-6,61.9,45.9,33.1,38.4,31.2,25.1,94,62,25,30.32,29.98,4,0,7,0.00
2013-2-7,49.0,42.1,35.5,42.5,37.6,33.8,97,85,68,30.36,30.03,3,0,9,0.56
2013-2-8,55.5,45.1,39.4,46.9,40.9,31.1,98,86,62,30.05,29.82,6,1,10,0.67
2013-2-9,52.8,38.9,28.9,31.6,24.8,17.5,91,61,26,30.38,30.04,5,0,8,0.00
2013-2-10,54.1,40.9,27.0,41.4,24.6,19.6,87,54,28,30.52,30.24,3,0,6,0.02
2013-2-11,63.2,55.7,44.7,60.4,53.7,40.6,99,93,85,30.24,29.92,9,1,15,0.04
2013-2-12,60.9,52.6,43.1,54.9,37.5,28.0,93,60,29,30.09,29.93,4,0,8,0.00
2013-2-13,48.5,46.1,41.4,46.8,44.1,38.6,98,93,70,29.97,29.63,2,0,8,0.34
2013-2-14,52.5,40.4,30.1,38.6,34.3,29.8,99,81,48,30.10,29.83,6,0,7,0.01
2013-2-15,62.8,45.7,30.8,41.0,34.5,30.0,99,70,32,30.11,29.95,5,0,10,0.00
2013-2-16,45.1,36.7,31.5,38.0,34.2,30.4,98,91,71,29.99,29.85,3,0,4,0.20
2013-2-17,37.0,29.0,20.9,30.7,17.6,9.1,97,66,32,30.31,29.93,8,1,14,0.00
2013-2-18,52.9,34.5,17.3,27.6,19.8,15.6,96,61,27,30.45,30.29,3,0,11,0.04
2013-2-19,52.2,43.5,33.4,50.5,39.5,27.6,98,86,60,30.28,29.87,6,1,16,0.09
2013-2-20,52.2,40.1,30.0,38.7,21.7,12.7,98,53,21,30.17,29.97,6,1,10,0.00
2013-2-21,54.6,39.4,23.9,25.4,21.2,18.2,86,51,25,30.30,30.14,4,0,8,0.00
2013-2-22,41.3,36.7,32.4,36.5,32.2,22.3,98,85,47,30.38,30.16,3,0,6,0.23
2013-2-23,44.1,40.5,36.5,43.5,40.0,35.9,99,98,97,30.16,29.83,3,0,6,0.53
2013-2-24,64.0,48.8,35.7,47.4,39.2,28.8,100,74,28,30.05,29.81,5,0,7,0.04
2013-2-25,43.3,36.9,30.2,31.0,26.1,23.0,87,66,45,30.25,30.06,5,0,7,0.00
2013-2-26,57.1,44.8,34.0,56.7,42.1,27.0,99,90,70,30.18,29.59,7,1,11,0.71
2013-2-27,61.1,50.0,43.1,47.4,41.2,36.0,99,75,41,29.79,29.62,5,1,12,0.00
2013-2-28,49.5,41.6,32.5,40.3,33.2,27.7,97,74,45,29.87,29.70,5,0,11,0.00
2013-3-1,50.9,39.6,29.2,33.8,30.0,27.1,93,71,43,29.93,29.85,5,0,8,0.00
2013-3-2,49.1,39.1,28.6,32.0,27.5,21.9,92,65,40,29.93,29.83,6,0,8,0.00
2013-3-3,47.9,35.5,26.6,25.1,22.2,18.3,86,61,37,30.00,29.85,6,1,10,0.00
2013-3-4,52.2,35.5,21.5,23.1,18.1,14.4,83,53,23,30.13,29.99,4,0,10,0.00
2013-3-5,52.4,43.0,33.4,44.8,35.0,21.3,97,76,37,30.11,29.60,5,0,7,0.49
2013-3-6,45.4,40.6,35.9,41.1,35.3,29.5,98,82,62,30.03,29.52,13,2,17,0.02
2013-3-7,51.3,40.0,28.6,34.6,30.7,26.8,97,72,48,30.25,30.03,12,0,12,0.00
2013-3-8,56.4,41.3,26.1,32.3,27.2,24.4,95,62,32,30.31,30.16,7,1,13,0.00
2013-3-9,63.7,45.0,29.2,32.6,29.2,26.1,91,59,27,30.36,30.26,5,0,7,0.00
2013-3-10,69.0,51.3,31.4,32.8,27.5,20.5,90,46,17,30.34,30.23,4,0,8,0.00
2013-3-11,70.1,57.1,42.5,53.6,45.1,25.9,93,66,40,30.26,29.95,7,1,15,0.00
2013-3-12,70.2,60.9,46.7,63.0,54.5,38.2,98,81,58,29.95,29.76,12,1,15,0.67
2013-3-13,57.7,45.2,31.7,38.5,29.6,19.9,97,59,29,30.14,29.95,7,1,12,0.00
2013-3-14,55.2,39.6,28.1,24.1,20.7,17.3,76,50,23,30.25,30.12,6,1,11,0.00
2013-3-15,63.1,45.6,27.3,36.6,28.3,20.2,85,54,32,30.20,29.91,8,1,16,0.00
2013-3-16,78.4,62.7,49.4,53.6,45.1,36.0,68,54,34,29.91,29.64,9,1,15,0.00
2013-3-17,64.3,50.5,39.9,53.3,45.1,37.7,96,82,67,30.20,29.83,6,1,8,0.00
2013-3-18,43.0,40.3,37.7,42.2,39.5,36.9,98,97,95,30.22,29.87,4,0,7,0.24
2013-3-19,68.5,51.6,40.1,47.9,34.6,16.1,99,63,16,30.04,29.83,7,1,12,0.01
2013-3-20,59.0,45.3,33.4,28.2,18.7,12.6,69,36,20,30.12,29.81,4,0,12,0.00
2013-3-21,45.8,38.4,29.3,32.4,21.0,10.9,88,52,28,29.99,29.74,8,1,13,0.00
2013-3-22,53.1,36.7,20.1,25.9,16.7,12.2,84,48,20,30.10,29.98,5,1,9,0.00
2013-3-23,56.4,44.1,34.8,34.4,27.4,20.7,81,55,28,30.08,29.93,3,0,6,0.00
2013-3-24,41.7,38.4,34.3,38.7,35.4,30.6,97,89,71,29.95,29.59,9,1,9,0.70
2013-3-25,48.9,40.4,35.0,39.0,31.7,24.2,98,75,42,29.82,29.57,8,1,14,0.01
2013-3-26,50.9,42.4,32.5,31.9,28.5,25.9,82,59,43,30.11,29.82,5,1,8,0.00
2013-3-27,53.5,41.3,28.7,30.2,25.8,21.8,91,58,30,30.24,30.11,7,1,10,0.00
2013-3-28,58.2,42.4,27.8,30.0,25.9,22.9,90,57,26,30.30,30.16,5,1,11,0.00
2013-3-29,62.5,45.2,29.0,32.2,27.9,24.6,94,56,24,30.35,30.19,5,0,9,0.00
2013-3-30,69.1,51.7,35.0,44.3,33.7,28.0,86,56,25,30.26,30.10,5,0,9,0.00
2013-3-31,69.3,57.4,48.1,57.5,51.5,44.2,97,82,62,30.12,29.81,5,1,9,0.63
2013-4-1,73.9,60.4,50.4,54.9,47.6,35.8,99,69,30,29.99,29.81,6,1,11,0.08
2013-4-2,62.1,47.4,32.3,35.4,28.7,19.8,92,53,20,30.17,30.00,5,1,12,0.00
2013-4-3,61.2,47.6,34.1,32.0,24.4,18.4,75,44,20,30.31,30.16,4,0,8,0.00
2013-4-4,51.1,42.6,38.2,40.9,32.4,21.8,97,70,41,30.39,29.95,7,1,12,0.68
2013-4-5,66.4,48.6,39.7,48.7,43.2,39.0,98,84,47,30.03,29.88,4,0,6,0.06
2013-4-6,68.5,52.7,40.0,41.2,33.3,24.0,95,52,24,30.29,30.03,5,1,7,0.00
2013-4-7,74.0,54.4,32.8,44.6,38.5,31.0,96,60,32,30.30,30.12,7,1,11,0.00
2013-4-8,81.1,67.2,54.7,57.2,52.9,44.5,95,63,37,30.18,30.05,6,1,12,0.00
2013-4-9,87.0,72.4,60.1,60.3,57.1,53.0,92,62,34,30.18,30.05,6,1,9,0.00
2013-4-10,89.6,75.6,64.0,63.0,59.4,56.2,86,60,33,30.09,29.93,7,1,12,0.00
2013-4-11,83.1,72.6,63.5,67.2,61.3,58.2,91,69,44,29.99,29.80,6,1,12,0.00
2013-4-12,83.0,72.6,64.3,69.9,64.0,44.5,96,76,44,29.81,29.60,8,2,16,0.63
2013-4-13,77.1,62.5,47.0,48.8,43.0,38.3,88,53,26,30.01,29.75,5,0,7,0.00
2013-4-14,83.1,64.6,45.1,54.3,44.8,36.0,98,57,20,30.12,30.01,3,0,8,0.00
2013-4-15,73.3,64.1,57.5,59.6,57.2,54.9,96,80,57,30.23,30.04,5,0,8,0.04
2013-4-16,79.3,64.9,57.9,62.4,58.7,56.5,98,83,48,30.32,30.21,4,0,6,0.00
2013-4-17,85.3,70.3,58.4,67.5,62.4,57.5,99,79,48,30.24,30.11,3,0,6,0.00
2013-4-18,81.8,70.5,58.5,64.5,60.6,57.0,97,73,45,30.21,30.05,9,1,12,0.00
2013-4-19,82.7,71.4,65.3,69.5,65.9,61.6,97,84,61,30.06,29.71,8,1,22,0.65
2013-4-20,66.4,55.1,43.7,64.7,43.7,33.6,97,71,31,30.28,29.81,6,0,11,0.13
2013-4-21,63.3,50.8,38.5,42.5,39.5,36.6,98,68,43,30.51,30.28,5,0,9,0.00
2013-4-22,62.6,49.5,35.9,46.1,40.3,34.5,95,73,46,30.52,30.29,5,1,9,0.00
2013-4-23,70.4,55.5,49.1,53.5,47.7,44.5,94,77,48,30.30,30.13,3,0,5,0.00
2013-4-24,78.1,62.7,48.3,58.5,53.8,47.4,98,76,46,30.16,29.97,7,1,11,0.00
2013-4-25,73.1,61.2,50.0,58.3,48.8,41.0,91,66,34,30.29,30.02,4,0,9,0.00
2013-4-26,74.3,58.4,42.8,49.9,43.6,35.3,99,65,26,30.44,30.28,3,0,7,0.00
2013-4-27,76.5,62.5,50.0,54.5,47.3,41.4,85,61,30,30.39,30.27,3,0,7,0.00
2013-4-28,62.0,58.2,54.4,58.0,51.6,45.8,97,80,63,30.27,30.12,2,0,4,0.35
2013-4-29,73.9,62.6,55.1,65.1,60.2,54.2,99,92,69,30.13,29.98,1,0,5,1.19
2013-4-30,68.5,60.9,53.5,61.5,58.6,52.9,99,93,73,30.19,30.01,3,0,4,0.00
2013-5-1,61.5,58.7,55.2,60.0,57.3,54.9,99,95,93,30.35,30.17,3,0,10,0.03
2013-5-2,63.3,58.7,53.0,59.1,56.4,51.3,97,92,83,30.35,30.27,3,0,6,0.01
2013-5-3,71.5,57.1,47.1,57.3,49.9,45.3,99,79,45,30.29,30.19,5,1,10,0.00
2013-5-4,63.6,55.3,49.2,55.5,50.1,46.0,92,83,70,30.24,30.11,7,1,10,0.00
2013-5-5,60.5,55.1,49.5,57.1,52.0,47.0,94,90,83,30.13,30.02,4,1,10,0.01
2013-5-6,68.5,61.0,56.0,65.8,59.6,54.8,99,95,87,30.03,29.85,6,1,12,1.35
2013-5-7,72.4,60.6,51.7,61.6,56.7,51.1,100,89,56,29.96,29.86,2,0,6,0.08
2013-5-8,72.4,60.5,50.3,63.5,57.1,50.0,99,90,61,30.02,29.93,4,0,8,0.06
2013-5-9,82.2,66.0,52.8,66.3,58.6,52.2,99,80,42,30.07,29.98,5,0,7,0.00
2013-5-10,87.0,72.0,55.3,66.0,61.0,54.4,99,72,42,30.07,29.94,3,0,10,0.00
2013-5-11,82.7,71.8,65.5,70.9,64.7,59.8,98,80,53,29.96,29.79,4,0,10,0.31
2013-5-12,73.8,64.1,48.2,65.0,54.0,39.1,99,74,34,30.04,29.79,4,0,9,0.02
2013-5-13,68.3,54.1,40.3,48.2,41.2,33.3,97,67,30,30.20,30.03,5,0,10,0.00
2013-5-14,72.3,55.6,37.2,50.3,41.9,36.4,99,66,28,30.27,30.09,3,0,6,0.00
2013-5-15,89.5,69.6,54.3,65.1,56.2,45.4,83,64,41,30.09,29.89,4,0,8,0.00
2013-5-16,86.0,74.0,62.0,67.8,63.1,59.4,96,71,45,29.98,29.89,3,0,8,0.00
2013-5-17,89.4,74.3,59.6,71.4,63.7,58.4,98,73,39,30.09,29.98,3,0,6,0.00
2013-5-18,79.4,69.6,62.9,71.4,65.7,59.9,97,88,71,30.18,30.07,2,0,4,0.34
2013-5-19,78.3,69.7,63.3,72.3,67.7,62.7,99,94,77,30.16,30.07,4,0,8,0.58
2013-5-20,79.4,71.1,67.2,73.4,69.3,66.6,99,94,79,30.13,30.03,6,0,8,1.12
2013-5-21,86.4,74.7,68.3,75.2,70.3,67.7,99,87,61,30.06,29.95,3,0,7,0.00
2013-5-22,86.9,75.3,68.8,72.7,69.5,67.3,97,83,58,30.03,29.91,4,0,9,0.00
2013-5-23,85.3,73.5,68.4,72.6,69.2,67.5,98,87,62,29.96,29.82,3,0,5,0.02
2013-5-24,71.3,63.2,46.2,68.3,55.4,40.7,99,79,45,30.19,29.80,9,1,15,0.06
2013-5-25,75.7,55.9,39.0,50.5,42.8,36.5,99,68,26,30.28,30.15,5,0,10,0.00
2013-5-26,77.5,58.2,42.3,57.1,47.3,41.5,98,73,31,30.29,30.19,2,0,5,0.00
2013-5-27,83.0,65.2,48.7,61.3,54.5,47.8,99,73,37,30.30,30.17,3,0,7,0.00
2013-5-28,85.6,72.4,59.4,69.5,63.0,55.0,94,74,54,30.27,30.15,3,0,11,0.00
2013-5-29,87.1,74.3,62.8,68.0,64.9,61.6,98,75,46,30.25,30.16,3,0,9,0.00
2013-5-30,88.8,74.4,62.2,70.6,65.9,61.3,98,77,43,30.27,30.18,2,0,6,0.00
2013-5-31,90.0,76.4,64.6,72.5,67.8,63.7,99,78,44,30.23,30.10,3,0,8,0.00
2013-6-1,90.2,77.6,66.9,70.9,67.8,65.3,98,75,46,30.14,30.02,3,0,7,0.00
2013-6-2,88.8,77.3,67.4,72.3,68.5,65.4,95,76,52,30.06,29.91,9,0,9,0.06
2013-6-3,86.6,74.4,67.0,75.4,71.1,66.2,98,90,63,29.96,29.83,4,0,6,0.18
2013-6-4,79.5,70.6,64.1,69.2,65.2,61.5,99,85,62,30.11,29.94,2,0,5,0.00
2013-6-5,84.5,71.9,59.9,67.5,62.1,58.2,99,74,43,30.16,30.03,5,0,8,0.00
2013-6-6,76.3,70.4,65.1,72.7,67.0,58.2,98,89,68,30.07,29.83,3,0,8,0.45
2013-6-7,76.2,71.0,69.0,74.9,70.5,68.4,99,98,95,29.87,29.50,6,0,12,2.74
2013-6-8,84.2,73.3,67.4,73.7,69.5,66.3,100,89,63,30.10,29.82,3,0,7,0.02
2013-6-9,88.9,76.9,66.3,75.6,71.0,66.0,99,84,56,30.17,30.06,5,0,8,0.02
2013-6-10,84.0,75.1,71.5,78.6,72.9,69.7,98,93,78,30.11,29.89,5,1,12,0.49
2013-6-11,86.1,76.0,68.1,72.2,69.2,66.6,96,81,53,29.95,29.89,4,0,7,0.00
2013-6-12,91.9,77.2,63.2,78.2,71.0,62.7,99,83,57,29.97,29.87,5,0,6,0.00
2013-6-13,94.4,79.0,67.5,78.7,72.7,63.2,99,84,50,29.87,29.59,9,0,17,0.19
2013-6-14,80.4,68.9,58.0,67.3,62.2,57.7,100,82,50,30.02,29.72,10,0,10,0.01
2013-6-15,85.6,70.6,56.6,69.7,63.1,56.0,99,80,46,30.13,30.01,3,0,6,0.00
2013-6-16,87.6,75.4,64.8,72.1,66.3,58.0,95,75,57,30.13,30.00,4,0,9,0.00
2013-6-17,86.2,77.0,71.2,77.1,71.0,66.5,92,82,68,30.03,29.93,2,0,6,0.01
2013-6-18,85.2,74.5,69.2,76.5,71.6,68.4,98,91,70,29.97,29.76,3,0,10,0.97
2013-6-19,82.3,72.0,64.1,71.5,67.5,63.8,99,87,61,30.13,29.88,3,0,4,0.01
2013-6-20,84.0,71.8,63.3,68.9,63.9,57.1,99,79,51,30.26,30.13,3,0,7,0.00
2013-6-21,85.1,69.6,53.7,68.4,60.3,52.8,99,76,41,30.27,30.20,3,0,6,0.00
2013-6-22,83.9,73.3,68.7,73.5,70.0,67.6,98,90,68,30.23,30.13,3,0,6,0.09
2013-6-23,86.6,76.2,67.2,76.6,72.1,66.9,99,88,67,30.22,30.13,5,0,7,0.00
2013-6-24,89.0,78.2,71.1,77.7,73.6,70.2,99,87,66,30.21,30.09,4,0,6,0.00
2013-6-25,90.6,77.7,70.0,79.3,72.7,69.0,98,85,67,30.13,30.00,7,0,11,0.00
2013-6-26,91.4,77.7,69.0,78.3,72.2,68.1,98,85,59,30.04,29.88,3,0,10,0.05
2013-6-27,89.7,77.8,67.9,77.9,72.9,67.4,99,86,61,29.92,29.71,4,0,8,0.01
2013-6-28,91.8,78.7,71.0,78.0,73.2,69.3,98,85,58,29.76,29.57,3,0,14,1.08
2013-6-29,86.2,76.1,69.5,77.1,72.8,69.2,99,90,65,29.74,29.60,3,0,5,0.74
2013-6-30,87.6,76.2,71.1,78.4,73.4,69.9,99,92,70,29.87,29.72,3,0,9,0.94
2013-7-1,83.6,75.8,69.7,76.5,73.0,69.0,99,92,78,30.00,29.85,4,0,9,1.47
2013-7-2,78.1,74.1,72.0,75.3,72.9,70.9,99,96,90,30.20,30.00,4,0,6,0.42
2013-7-3,87.0,77.9,73.3,78.6,75.2,72.7,99,92,70,30.25,30.16,3,0,10,0.40
2013-7-4,90.1,79.3,72.9,78.0,74.2,71.1,99,86,54,30.29,30.19,5,1,7,0.02
2013-7-5,90.7,80.3,71.5,77.5,74.1,70.6,99,83,57,30.29,30.16,3,0,8,0.00
2013-7-6,89.3,79.3,73.1,78.4,74.2,71.6,98,86,64,30.26,30.12,2,0,4,0.00
2013-7-7,90.7,78.6,69.7,78.8,73.8,69.1,99,86,64,30.20,30.06,3,0,6,0.00
2013-7-8,91.4,77.0,71.4,78.9,73.6,70.8,99,90,58,30.18,30.09,4,0,7,0.54
2013-7-9,90.5,76.8,71.3,80.0,74.1,70.3,99,92,63,30.16,30.07,5,0,8,0.98
2013-7-10,89.2,78.8,72.0,79.3,75.0,70.7,99,89,68,30.11,29.95,3,0,13,0.24
2013-7-11,82.4,74.7,72.3,78.3,73.7,71.6,99,97,82,29.99,29.89,2,0,4,0.51
2013-7-12,76.6,73.3,70.4,73.2,71.7,69.7,99,95,86,30.03,29.88,4,0,5,0.01
2013-7-13,80.5,73.9,69.7,77.5,72.7,69.1,99,96,86,30.20,30.02,2,0,6,0.55
2013-7-14,89.2,78.5,70.8,78.0,73.5,70.5,100,86,61,30.31,30.20,5,0,5,0.01
2013-7-15,91.7,77.8,67.4,79.0,72.4,67.1,100,86,54,30.33,30.25,3,0,5,0.00
2013-7-16,96.8,80.4,68.6,82.6,74.8,68.3,100,85,55,30.28,30.18,2,0,3,0.00
2013-7-17,94.2,83.0,71.8,81.5,75.8,71.2,99,81,52,30.23,30.11,2,0,5,0.00
2013-7-18,96.4,82.8,72.4,82.0,76.9,71.7,99,84,54,30.14,30.04,1,0,3,0.00
2013-7-19,91.5,81.6,74.1,80.9,76.3,73.0,99,85,64,30.09,29.98,3,0,7,0.00
2013-7-20,90.7,80.3,74.8,78.9,75.3,72.9,95,85,67,30.03,29.92,3,0,7,0.00
2013-7-21,88.8,78.5,73.0,78.8,74.6,71.6,97,89,65,30.00,29.91,2,0,6,0.00
2013-7-22,89.4,78.6,71.2,78.6,74.6,70.9,99,89,68,29.95,29.82,4,0,7,0.00
2013-7-23,90.3,80.1,74.2,77.9,74.5,72.6,96,84,60,29.85,29.72,4,0,8,0.00
2013-7-24,93.4,79.9,69.2,79.6,73.1,68.6,99,82,48,29.85,29.73,2,0,4,0.00
2013-7-25,80.6,73.3,65.7,73.1,69.6,65.1,98,89,73,30.04,29.83,2,0,6,0.00
2013-7-26,87.6,72.1,60.3,71.5,65.3,60.0,100,82,51,30.12,30.03,3,0,4,0.00
2013-7-27,86.6,74.3,65.9,75.3,69.6,65.3,99,87,57,30.07,29.93,3,0,5,0.10
2013-7-28,88.3,76.7,69.0,76.1,72.0,68.7,100,87,59,30.00,29.93,3,0,6,0.00
2013-7-29,90.7,76.0,66.7,75.1,70.2,64.7,99,84,47,30.16,29.99,4,0,6,0.03
2013-7-30,89.9,73.2,59.5,75.3,67.4,58.8,99,84,50,30.23,30.14,3,0,4,0.00
2013-7-31,84.5,74.1,70.1,76.1,71.7,68.8,99,93,72,30.15,30.02,1,0,7,0.22
2013-8-1,86.5,75.3,70.0,76.9,72.8,69.2,99,93,67,30.03,29.86,3,0,12,0.20
2013-8-2,90.0,76.2,65.3,76.6,70.5,65.0,100,85,52,30.03,29.90,2,0,5,0.00
2013-8-3,88.6,76.1,69.2,79.7,73.6,68.9,100,93,72,30.02,29.91,3,0,9,0.77
2013-8-4,85.3,73.5,64.9,73.8,69.0,63.6,100,88,50,30.04,29.89,4,0,8,0.01
2013-8-5,83.3,70.8,60.3,72.4,65.1,60.0,100,84,50,30.11,30.02,2,0,7,0.00
2013-8-6,83.9,73.9,67.6,73.8,69.4,65.9,98,87,67,30.07,30.00,2,0,6,0.27
2013-8-7,88.5,76.8,67.4,76.1,71.0,66.9,99,84,59,30.11,30.03,5,0,7,0.00
2013-8-8,89.8,78.8,70.5,78.9,73.4,69.9,99,85,58,30.07,30.00,3,0,5,0.00
2013-8-9,92.2,81.7,73.3,80.4,75.9,72.6,99,84,63,30.05,29.97,3,0,6,0.00
2013-8-10,92.4,79.3,74.1,82.3,75.9,73.0,99,90,66,30.10,30.00,4,0,9,0.86
2013-8-11,94.0,80.0,72.1,80.9,75.7,71.8,100,88,57,30.11,30.00,2,0,4,0.00
2013-8-12,92.9,80.0,71.8,79.9,74.5,71.5,100,85,54,30.05,29.93,2,0,5,0.00
2013-8-13,89.2,77.5,71.0,79.5,74.4,70.4,99,91,68,29.98,29.78,4,0,10,0.33
2013-8-14,76.6,70.5,58.7,72.0,66.6,58.1,99,88,64,30.10,29.82,3,0,5,0.00
2013-8-15,78.1,64.5,57.2,66.6,60.4,56.9,99,88,53,30.18,30.09,2,0,4,0.00
2013-8-16,72.4,64.9,57.1,66.0,61.9,56.8,100,91,70,30.20,30.11,1,0,5,0.00
2013-8-17,72.7,67.1,61.3,71.7,66.2,60.7,99,97,94,30.20,30.13,1,0,5,0.09
2013-8-18,81.4,72.4,66.8,73.8,69.8,66.2,100,92,73,30.22,30.12,4,0,8,0.03
2013-8-19,76.7,69.9,66.4,73.0,68.8,65.8,99,97,87,30.21,30.11,3,0,4,0.56
2013-8-20,83.9,74.1,66.4,76.1,71.4,66.3,100,92,74,30.20,30.12,2,0,3,0.01
2013-8-21,86.9,76.2,71.3,78.5,73.8,70.9,100,93,73,30.23,30.10,2,0,6,0.02
2013-8-22,90.9,77.6,68.9,77.6,72.6,68.6,100,87,56,30.15,29.99,3,0,8,0.00
2013-8-23,87.7,76.5,68.1,77.6,72.4,66.9,100,88,65,30.08,29.92,2,0,7,0.00
2013-8-24,84.3,71.9,63.3,68.2,64.4,60.6,98,80,46,30.32,30.08,4,0,6,0.00
2013-8-25,81.3,68.6,59.0,67.8,61.8,56.3,100,82,47,30.41,30.30,4,0,5,0.00
2013-8-26,84.3,67.2,53.0,67.9,60.7,52.7,100,83,42,30.34,30.12,2,0,4,0.00
2013-8-27,89.6,73.4,61.4,77.3,68.2,60.1,98,86,57,30.13,29.96,2,0,4,0.00
2013-8-28,82.2,75.2,68.4,77.3,73.4,68.1,100,95,80,29.99,29.86,2,0,3,0.03
2013-8-29,88.1,77.9,69.5,77.1,73.5,68.9,99,88,65,30.02,29.83,3,0,7,0.00
2013-8-30,89.1,74.7,66.2,73.0,68.2,63.8,99,83,48,30.07,29.95,2,0,4,0.00
2013-8-31,89.8,76.9,67.3,75.3,71.2,66.7,100,85,55,29.98,29.87,3,0,8,0.00
2013-9-1,90.0,76.3,71.3,79.8,73.6,70.6,99,92,67,29.90,29.79,4,0,11,2.49
2013-9-2,89.5,77.6,69.8,78.7,74.0,69.5,100,90,65,29.89,29.80,2,0,5,0.00
2013-9-3,89.3,77.0,70.7,79.0,73.8,70.1,100,91,67,29.94,29.80,3,0,5,0.00
2013-9-4,86.7,74.3,67.2,74.4,69.2,65.9,100,86,60,30.10,29.94,2,0,6,0.00
2013-9-5,88.2,72.0,62.4,72.3,65.5,58.2,100,83,38,30.11,30.03,1,0,1,0.01
2013-9-6,83.6,69.6,59.8,69.9,63.5,58.7,99,83,47,30.19,30.09,0,0,1,0.00
2013-9-7,84.4,68.9,57.2,70.3,63.5,56.9,100,85,54,30.15,29.99,0,0,1,0.00
2013-9-8,89.0,72.5,60.9,74.0,66.2,60.4,100,84,42,30.00,29.91,0,0,1,0.00
2013-9-9,86.9,74.4,64.3,75.1,69.3,64.0,100,86,58,30.16,30.00,3,0,7,0.00
2013-9-10,90.1,76.9,67.4,75.3,71.1,67.1,100,85,54,30.24,30.15,0,0,0,0.01
2013-9-11,89.7,76.1,67.1,75.4,70.8,66.8,99,85,55,30.21,30.08,0,0,0,0.00
2013-9-12,90.8,77.4,68.4,77.7,71.8,67.5,97,84,59,30.08,29.81,0,0,0,0.00
2013-9-13,84.9,72.4,60.8,70.6,66.3,59.3,99,83,51,29.90,29.76,3,0,7,0.00
2013-9-14,78.3,64.9,56.8,62.5,55.2,49.9,96,73,42,30.16,29.90,3,0,7,0.00
2013-9-15,81.4,64.5,50.0,66.2,57.8,49.4,99,81,50,30.26,30.13,3,0,6,0.00
2013-9-16,84.7,72.0,63.4,74.2,66.2,61.2,99,84,49,30.21,30.05,4,0,6,0.26
2013-9-17,77.5,65.1,54.8,61.9,56.5,52.3,99,77,43,30.34,30.20,3,0,7,0.00
2013-9-18,75.8,58.9,46.6,60.0,52.6,46.1,99,83,44,30.33,30.19,3,0,4,0.00
2013-9-19,76.1,63.8,53.9,65.9,59.3,53.3,99,87,56,30.22,30.10,2,0,3,0.00
2013-9-20,74.6,66.8,61.4,68.6,64.8,60.2,99,93,79,30.11,29.98,2,0,5,0.44
2013-9-21,75.5,69.6,66.0,71.9,68.1,65.2,99,95,85,29.98,29.73,3,0,5,0.62
2013-9-22,78.9,67.7,57.9,67.2,63.1,57.3,99,87,54,29.91,29.73,4,0,9,0.47
2013-9-23,73.5,61.0,52.3,62.0,55.5,51.7,99,84,55,30.09,29.91,3,0,5,0.00
2013-9-24,78.3,61.0,51.2,65.3,57.1,50.9,99,89,52,30.12,29.97,2,0,3,0.00
2013-9-25,74.7,62.8,51.6,66.9,59.7,51.3,100,91,61,29.98,29.88,2,0,4,0.01
2013-9-26,78.8,65.1,55.7,63.7,59.4,55.1,100,85,47,30.05,29.89,3,0,5,0.00
2013-9-27,74.4,60.7,50.6,64.3,56.7,50.3,100,88,60,30.21,30.05,2,0,5,0.00
2013-9-28,73.8,59.7,48.2,62.3,55.4,47.9,100,87,59,30.28,30.18,6,0,7,0.00
2013-9-29,76.7,60.4,49.0,61.5,55.4,48.7,100,86,47,30.19,30.05,3,0,6,0.01
2013-9-30,76.5,60.7,50.7,63.9,56.3,50.4,99,88,49,30.12,30.01,0,0,1,0.00
2013-10-1,82.2,64.4,51.3,70.6,59.7,51.0,100,87,49,30.14,30.03,4,0,5,0.01
2013-10-2,84.4,67.7,55.9,68.2,61.9,55.6,100,85,47,30.14,30.05,2,0,7,0.00
2013-10-3,85.3,69.5,58.7,69.9,63.8,58.4,100,85,47,30.14,30.06,3,0,5,0.00
2013-10-4,84.8,71.3,61.7,71.3,66.1,61.4,100,86,54,30.14,30.05,3,0,5,0.01
2013-10-5,88.3,72.7,61.1,72.7,66.2,60.8,100,83,47,30.12,30.03,3,0,6,0.00
2013-10-6,83.5,72.4,62.6,73.4,68.6,62.3,100,89,66,30.08,29.95,5,0,7,0.00
2013-10-7,74.4,70.6,63.3,73.1,69.6,62.4,99,97,94,30.00,29.86,7,0,10,1.28
2013-10-8,63.1,59.8,58.4,62.2,53.4,49.3,97,80,70,30.21,29.99,8,0,11,0.00
2013-10-9,62.0,58.1,55.0,58.4,54.9,51.8,98,90,80,30.20,30.09,7,1,9,0.16
2013-10-10,60.1,56.9,54.1,59.7,56.5,53.6,99,98,97,30.09,29.95,5,0,9,0.14
2013-10-11,65.7,61.4,58.9,63.8,60.7,58.6,100,98,90,29.98,29.91,2,0,6,0.03
2013-10-12,68.9,64.1,61.1,66.8,63.4,60.8,100,98,91,30.09,29.96,1,0,6,0.02
2013-10-13,67.1,64.0,62.0,66.0,63.4,61.7,100,98,94,30.22,30.08,4,0,6,0.09
2013-10-14,64.9,62.0,55.4,63.4,61.1,55.3,100,97,90,30.26,30.19,3,0,6,0.06
2013-10-15,71.2,61.3,51.3,65.1,58.8,51.2,100,93,75,30.21,30.08,2,0,6,0.01
2013-10-16,71.9,65.1,59.9,65.8,63.1,59.6,99,94,77,30.08,29.97,1,0,2,0.00
2013-10-17,75.1,66.6,59.1,67.7,64.0,59.0,100,92,74,29.98,29.85,3,0,6,0.01
2013-10-18,69.5,62.0,52.4,66.1,56.5,49.9,99,84,52,30.05,29.89,1,0,6,0.00
2013-10-19,70.9,62.4,57.7,66.6,61.1,56.8,99,96,85,29.99,29.82,2,0,3,0.02
2013-10-20,64.9,52.9,43.6,58.4,47.8,40.8,100,86,43,30.14,29.91,3,0,5,0.00
2013-10-21,67.4,51.6,37.9,53.4,46.4,37.6,100,85,42,30.19,30.03,3,0,5,0.01
2013-10-22,65.2,57.5,51.5,60.4,55.5,50.2,99,94,81,30.03,29.82,1,0,2,0.00
2013-10-23,65.6,57.2,45.2,58.8,50.0,37.8,100,79,45,30.00,29.69,6,0,9,0.01
2013-10-24,58.7,45.3,33.9,43.6,37.7,33.3,99,78,43,30.20,30.00,4,0,10,0.00
2013-10-25,55.6,43.4,32.9,40.2,36.0,30.4,98,79,40,30.38,30.20,5,0,8,0.00
2013-10-26,58.4,42.1,28.7,40.7,34.1,28.2,99,77,40,30.38,30.09,3,0,7,0.00
2013-10-27,66.6,52.1,39.7,48.5,43.0,38.6,97,74,41,30.15,30.07,3,0,7,0.00
2013-10-28,70.4,56.1,46.0,56.6,50.3,44.6,98,83,51,30.27,30.14,2,0,3,0.00
2013-10-29,72.6,58.9,50.9,60.5,55.2,50.6,99,89,59,30.35,30.26,2,0,3,0.00
2013-10-30,72.0,61.7,55.1,62.1,58.1,53.9,97,89,67,30.31,30.17,3,0,4,0.00
2013-10-31,74.9,65.5,57.4,63.7,59.2,56.5,98,81,60,30.21,29.94,8,0,10,0.00
2013-11-1,72.0,68.3,63.1,68.1,66.0,62.5,99,93,82,29.94,29.68,6,1,14,0.81
2013-11-2,70.9,60.6,50.0,62.3,53.4,43.8,100,81,41,29.94,29.69,4,0,9,0.01
2013-11-3,63.0,48.7,38.1,45.2,40.8,37.5,99,77,43,30.39,29.94,6,0,8,0.00
2013-11-4,54.6,43.1,34.2,37.9,35.2,32.6,96,76,46,30.59,30.39,4,0,7,0.00
2013-11-5,59.0,48.1,35.1,51.2,43.7,34.0,97,86,69,30.57,30.45,3,0,6,0.00
2013-11-6,71.1,55.6,42.2,58.5,51.5,41.9,99,88,58,30.46,30.13,3,0,5,0.00
2013-11-7,68.1,59.5,45.4,63.5,55.2,36.1,100,86,58,30.13,29.92,3,0,9,0.10
2013-11-8,57.0,43.2,31.4,37.8,32.8,28.6,97,71,35,30.35,30.11,3,0,9,0.00
2013-11-9,58.4,44.3,30.6,39.8,33.9,29.3,97,71,36,30.40,30.19,3,0,7,0.00
2013-11-10,71.1,53.0,39.6,43.3,37.9,30.7,90,60,29,30.26,30.07,4,0,10,0.00
2013-11-11,60.4,44.4,30.4,36.7,33.0,28.8,96,68,33,30.37,30.16,2,0,5,0.00
2013-11-12,60.3,42.7,34.5,43.1,34.2,19.7,94,74,43,30.45,30.07,6,1,13,0.01
2013-11-13,44.9,32.9,23.3,24.0,21.3,17.8,90,65,34,30.56,30.44,6,0,8,0.00
2013-11-14,57.7,39.4,24.5,28.7,25.6,22.7,94,63,28,30.49,30.36,3,0,6,0.00
2013-11-15,62.7,47.6,31.4,48.9,37.3,26.5,90,70,41,30.38,30.24,3,0,7,0.00
2013-11-16,65.3,55.6,49.5,58.6,53.2,48.4,99,92,79,30.29,30.23,4,0,4,0.00
2013-11-17,70.2,61.5,53.0,66.1,59.0,52.7,100,92,76,30.24,29.91,3,0,7,0.04
2013-11-18,74.6,65.0,51.6,67.6,54.0,33.1,99,71,45,29.97,29.81,3,0,12,0.03
2013-11-19,56.5,46.7,38.7,36.2,31.5,29.4,77,57,37,30.35,29.97,6,0,8,0.00
2013-11-20,52.6,43.7,35.6,40.3,33.8,28.9,91,69,51,30.48,30.34,5,0,7,0.00
2013-11-21,60.7,49.0,38.3,50.8,44.1,36.6,95,84,66,30.53,30.41,2,0,5,0.00
2013-11-22,69.5,58.2,46.2,61.1,54.1,44.9,97,87,74,30.42,30.09,3,0,6,0.02
2013-11-23,61.8,54.4,40.4,60.9,45.3,25.5,99,74,45,30.18,30.04,3,0,7,0.01
2013-11-24,40.1,32.2,23.0,29.6,13.2,6.0,71,47,27,30.58,30.18,7,1,13,0.00
2013-11-25,42.2,29.9,17.4,22.7,14.3,8.7,90,56,25,30.63,30.41,4,0,6,0.00
2013-11-26,65.8,45.3,34.4,65.2,38.7,19.0,99,79,48,30.43,29.59,7,1,14,0.85
2013-11-27,50.9,40.3,29.4,50.0,38.3,22.4,99,93,71,30.17,29.51,6,1,9,0.87
2013-11-28,44.2,31.4,20.9,27.2,23.2,19.2,95,74,42,30.52,30.18,2,0,4,0.00
2013-11-29,49.2,35.1,24.7,30.2,26.6,23.7,97,74,42,30.68,30.50,5,0,7,0.00
2013-11-30,48.7,34.5,24.9,35.3,29.2,23.6,97,82,58,30.68,30.40,4,0,5,0.00
2013-12-1,57.3,42.6,26.2,38.1,33.8,25.4,98,74,40,30.40,30.06,3,0,4,0.00
2013-12-2,59.3,42.7,34.9,46.1,38.7,33.7,98,87,56,30.06,29.85,2,0,4,0.00
2013-12-3,58.8,47.7,33.9,48.5,42.1,33.1,98,82,62,30.02,29.90,3,0,6,0.00
2013-12-4,62.3,56.6,51.0,57.9,54.0,48.2,99,91,84,30.10,30.00,1,0,5,0.02
2013-12-5,66.9,61.5,54.4,64.8,60.7,53.8,100,97,92,30.15,30.05,6,0,8,0.08
2013-12-6,78.7,70.6,65.3,66.4,64.5,63.2,98,82,62,30.08,29.97,11,2,16,0.00
2013-12-7,69.8,48.4,42.3,66.0,44.2,32.9,97,86,69,30.48,29.99,5,1,10,0.20
2013-12-8,42.3,35.8,33.2,34.5,32.8,30.3,98,90,68,30.50,30.32,3,0,6,0.16
2013-12-9,45.3,39.8,34.8,45.0,39.5,34.2,99,99,98,30.32,30.09,2,0,4,0.26
2013-12-10,46.5,41.9,27.7,46.2,41.0,26.7,99,97,87,30.34,29.95,3,0,10,0.51
2013-12-11,48.7,34.7,23.5,31.2,27.1,23.0,99,77,39,30.49,30.31,5,0,7,0.01
2013-12-12,44.0,33.0,24.7,29.5,23.4,12.2,96,72,28,30.45,30.30,4,0,8,0.00
2013-12-13,50.2,35.8,22.7,30.2,23.8,20.2,93,65,33,30.42,30.30,5,0,7,0.00
2013-12-14,48.7,41.8,38.9,42.0,36.2,29.2,99,82,51,30.33,29.80,6,0,6,0.85
2013-12-15,53.5,42.0,30.6,45.2,37.1,28.5,99,85,52,30.09,29.72,4,0,10,0.02
2013-12-16,54.5,40.3,29.2,37.0,33.0,27.8,96,77,47,30.20,30.08,3,0,6,0.01
2013-12-17,61.7,46.8,33.9,42.5,37.3,32.7,97,73,41,30.15,29.89,5,0,12,0.00
2013-12-18,48.5,38.3,30.0,38.1,25.7,20.3,93,63,33,30.31,30.05,5,0,9,0.00
2013-12-19,61.9,45.6,30.0,31.4,27.0,23.6,79,51,26,30.35,30.24,6,0,10,0.00
2013-12-20,66.8,55.3,44.7,55.2,46.9,31.1,91,74,54,30.26,30.13,9,1,13,0.00
2013-12-21,74.4,62.2,51.3,66.7,57.1,49.0,95,84,66,30.17,30.05,9,1,16,0.00
2013-12-22,78.1,70.5,64.8,68.8,65.8,62.1,96,86,66,30.13,30.02,12,2,15,0.45
2013-12-23,66.6,60.7,46.6,65.5,59.8,44.0,99,97,90,30.16,30.00,4,0,9,1.87
2013-12-24,46.6,40.4,28.7,44.2,31.8,17.4,98,72,52,30.48,30.14,4,1,11,0.01
2013-12-25,39.7,28.4,20.2,21.2,17.7,13.3,90,66,35,30.59,30.43,2,0,7,0.00
2013-12-26,51.9,35.1,22.9,32.0,27.3,20.5,94,76,39,30.44,30.27,2,0,7,0.00
2013-12-27,52.7,35.7,24.2,28.8,25.4,22.4,96,70,31,30.50,30.39,2,0,4,0.00
2013-12-28,59.3,42.7,27.6,35.8,29.9,25.5,94,65,32,30.44,30.19,3,0,5,0.00
2013-12-29,61.5,49.5,42.9,61.4,47.4,34.7,100,93,55,30.19,29.70,7,0,11,1.74
2013-12-30,53.9,44.2,35.6,46.1,41.2,35.3,100,90,66,30.16,29.94,1,0,4,0.01
2013-12-31,50.8,40.7,30.8,39.8,32.7,24.6,99,76,36,30.38,30.14,8,0,10,0.01
2014-1-1,51.1,38.2,29.7,32.8,29.0,26.2,93,72,38,30.45,30.17,3,0,6,0.00
2014-1-2,48.0,42.4,36.1,44.1,38.6,31.8,98,87,70,30.18,29.58,2,0,12,0.38